Location: El Águila
(10.4167°N, 66.7167°W)
Time: 14:46:43
(UTC+00:00)

CZ-3C R/B - Pass Details

Date: 02 April 2023
Orbit: 253 x 32126 km, 20.0° (Epoch: 28 May)

Event Time Altitude Azimuth Distance (km) Brightness Sun altitude
Rises 01:43:02 0° 253° (WSW) 7,247 7.5 -45.6°
Reaches altitude 10° 01:45:55 10° 254° (WSW) 7,137 7.3 -46.3°
Maximum altitude 02:53:13 83° 330° (NNW) 18,264 8.5 -61.4°
Drops below altitude 10° 10:33:23 10° 115° (ESE) 5,530 7.6 1.6°
Sets 10:35:34 0° 115° (ESE) 5,823 7.7 2.1°
